{"data":{"norad_id":67621,"intl_designator":"2026-020E","name":"STARLINK-36615","alt_names":[],"object_type":"PAYLOAD","status":"ACTIVE","operator":null,"country":"US","launch_date":"2026-01-30","launch_site_code":"AFETR","launch_vehicle":null,"mission":null,"orbit_class":"UNKNOWN","rcs_meters":null,"size_class":null,"mass_kg":null,"dimensions":null,"purposes":["comms"],"wikipedia_slug":null,"has_3d_model":false,"image_url":null,"decayed_at":null,"tle_current":{"epoch":"2026-09-19T07:47:20.853024Z","epoch_age_seconds":170986,"freshness":"FRESH","line1":"1 67621U 26020E   26262.32454691  .00009157  00000+0  34180-3 0  9994","line2":"2 67621  43.0001 126.5624 0001715 276.4837  83.5819 15.27587425 35726","mean_motion":15.27587425,"eccentricity":0.0001715,"inclination_deg":43.0001,"raan_deg":126.5624,"arg_perigee_deg":276.4837,"mean_anomaly_deg":83.5819,"bstar":0.0003418,"rev_number":3572,"period_min":94.266290520165,"perigee_km":481.85017340607,"apogee_km":484.20355261108,"semimajor_km":6861.1638630086,"source":"CELESTRAK","updated_at":"2026-09-20T09:00:43.610777Z"}}}